Wind_Speed
68 70 72 76 76 75 76 76 73 73 73 70 71 67 62 59 55 56 56 57 52 49 50 44 41 43 44 41 38 40 39 37 37
58 68 75 77 79 77 75 81 79 75 74 71 73 74 72 64 61 60 56 53 56 53 50 48 44 40 43 45 38 41 40 38 41
32 43 53 62 69 78 79 77 82 86 80 77 74 73 74 75 67 63 62 55 55 51 52 50 47 50 40 42 38 44 44 45 47
35 32 37 43 49 57 65 78 81 80 87 85 79 79 72 78 76 72 71 65 58 58 53 51 49 42 46 47 44 43 44 48 48
24 29 33 35 37 40 48 57 63 79 84 85 88 91 87 77 75 74 73 72 62 59 58 58 52 50 49 45 47 46 41 42 49
22 20 29 30 42 40 41 48 58 66 73 82 86 84 90 86 82 75 78 76 69 64 62 62 59 57 50 47 48 50 47 47 50
31 27 26 28 29 39 41 49 53 61 67 71 78 86 86 91 89 86 78 83 75 73 69 65 64 60 57 51 52 54 58 58 56
39 38 39 42 39 39 38 47 51 54 58 68 73 76 85 90 91 92 86 82 82 77 73 69 65 65 60 59 64 60 60 61 60
44 46 48 49 52 46 45 47 44 58 59 62 73 74 79 86 93 94 92 88 86 81 77 77 72 69 67 67 63 62 61 64 66
49 51 53 57 56 54 51 50 48 50 61 66 64 75 77 80 88 96 98 97 93 89 84 80 76 71 71 72 66 68 69 68 68
54 55 57 60 57 54 56 50 48 51 52 58 67 68 79 79 87 92 100 101 101 97 96 90 84 82 77 63 66 72 72 67 71
59 59 60 58 56 54 54 51 49 49 50 51 50 66 74 81 82 92 98 102 102 99 95 97 96 88 85 83 82 80 77 76 73
64 63 62 64 58 55 52 49 49 49 48 48 50 53 61 72 80 83 93 103 105 103 99 98 95 90 89 81 81 85 85 85 85
68 67 69 68 59 58 52 44 45 48 49 50 48 48 52 57 67 70 82 95 105 106 105 98 98 93 92 88 86 81 82 84 83
72 72 71 68 63 57 52 43 42 43 45 47 49 50 51 52 56 59 63 79 97 108 108 107 101 99 93 96 90 83 81 84 80
76 75 74 72 67 58 52 43 38 41 44 47 46 51 54 55 57 57 61 66 85 100 110 111 109 106 100 101 102 91 94 89 80
79 78 75 73 68 61 54 48 42 41 42 45 48 49 54 58 60 59 60 65 70 88 108 113 115 113 110 105 103 103 95 95 87
82 79 76 72 68 63 60 55 51 46 44 44 47 50 53 56 61 62 62 63 70 72 93 114 118 120 117 113 110 107 106 107 106
83 80 76 72 68 67 65 64 59 55 51 47 45 49 54 56 60 64 65 65 67 75 79 99 118 122 124 119 116 116 112 113 111
80 78 75 72 70 69 68 65 64 62 59 53 50 49 50 54 58 63 66 68 70 71 78 90 104 121 126 128 123 121 117 121 114
Wind_Direction
251 252 253 254 256 254 252 250 244 245 245 246 242 242 241 243 245 242 240 239 238 240 242 247 249 249 246 243 243 246 244 238 241
251 254 254 253 253 254 253 251 250 249 248 245 241 244 240 243 248 244 241 243 240 237 243 241 241 243 246 246 236 238 241 243 240
248 250 254 257 258 254 253 253 250 249 250 250 245 243 241 245 241 241 241 240 241 238 242 237 243 242 241 245 238 240 244 242 241
248 251 251 255 256 256 254 251 253 252 248 248 247 246 245 242 246 245 241 237 239 238 234 236 237 238 241 242 245 244 245 242 243
271 258 262 255 250 248 251 251 252 250 250 249 247 244 248 243 241 240 240 235 236 237 234 234 239 239 241 241 240 241 240 241 241
301 302 265 273 255 263 255 250 251 251 249 246 247 246 244 245 243 241 236 232 234 234 236 235 231 236 233 234 239 238 237 236 241
322 318 302 297 298 267 271 255 252 251 252 249 247 245 244 243 243 244 237 233 234 233 229 235 234 233 236 229 232 236 237 241 241
325 323 321 315 312 296 280 270 258 253 248 246 246 243 241 242 240 241 241 236 232 232 229 229 232 231 226 228 234 237 238 239 240
323 323 322 319 314 305 293 281 266 252 252 249 244 245 242 239 239 237 237 237 233 234 232 228 226 232 233 233 231 232 236 240 240
319 320 320 319 314 308 301 289 274 265 255 250 252 244 243 243 237 237 236 233 235 236 232 226 226 228 231 232 231 235 235 239 240
318 318 318 318 314 308 303 294 280 276 264 252 248 244 239 239 237 234 234 234 234 234 234 232 230 231 229 227 233 231 232 235 234
316 317 317 316 313 312 307 296 283 277 270 259 254 246 238 236 237 233 233 232 232 231 230 230 232 230 231 229 231 230 230 229 229
314 315 315 315 313 310 310 296 285 276 270 267 260 256 248 241 238 238 232 231 230 229 226 229 229 228 224 224 230 234 232 231 233
313 313 312 312 310 311 311 298 289 276 270 268 263 259 254 252 242 243 235 231 229 228 225 225 226 226 222 220 227 225 229 231 233
312 311 311 311 308 308 309 299 290 282 276 269 267 262 258 254 249 247 244 237 230 228 226 221 224 225 220 219 220 225 226 232 234
311 312 310 311 309 308 306 301 295 285 277 271 266 263 260 256 254 249 246 241 235 230 227 223 220 224 222 220 218 225 231 231 231
309 311 310 311 309 308 309 305 300 291 282 272 266 260 258 258 255 254 247 242 239 233 227 226 223 222 223 221 223 220 225 230 231
309 309 309 309 308 307 306 306 302 297 285 278 269 261 257 254 255 253 250 246 239 235 231 227 225 224 224 223 222 222 225 231 231
307 307 306 305 305 304 304 303 301 296 291 283 274 267 259 253 250 251 252 248 244 238 232 228 227 226 226 225 223 223 222 228 233
306 305 304 302 300 300 299 298 297 296 291 287 281 271 264 259 254 249 248 249 246 241 237 231 227 228 227 227 226 223 224 226 231
Height
10729 10733 10734 10733 10734 10737 10740 10743 10748 10752 10755 10759 10766 10770 10774 10779 10784 10788 10792 10798 10803 10806 10810 10815 10818 10821 10824 10829 10832 10832 10833 10835 10837
10716 10716 10715 10715 10718 10721 10725 10728 10731 10737 10741 10746 10753 10757 10762 10767 10773 10778 10783 10788 10792 10798 10802 10806 10810 10813 10816 10819 10825 10826 10826 10828 10830
10708 10706 10705 10704 10705 10708 10710 10712 10715 10720 10727 10733 10739 10743 10748 10752 10759 10767 10773 10777 10782 10787 10791 10796 10800 10804 10809 10811 10815 10818 10819 10820 10822
10702 10699 10696 10694 10693 10693 10694 10697 10700 10703 10709 10716 10722 10727 10731 10737 10743 10752 10758 10764 10772 10775 10780 10785 10790 10795 10801 10804 10807 10809 10811 10813 10814
10695 10692 10690 10686 10684 10682 10682 10681 10682 10685 10691 10696 10703 10710 10714 10720 10727 10734 10742 10750 10758 10764 10770 10775 10780 10785 10791 10795 10797 10800 10802 10803 10805
10685 10682 10680 10679 10677 10675 10673 10669 10668 10668 10671 10677 10683 10688 10696 10703 10710 10718 10727 10736 10746 10755 10758 10762 10768 10773 10780 10785 10788 10790 10792 10794 10794
10674 10671 10668 10668 10667 10665 10661 10658 10655 10654 10655 10657 10662 10670 10677 10684 10690 10699 10709 10720 10729 10738 10744 10752 10758 10762 10767 10770 10773 10777 10781 10782 10783
10660 10658 10656 10654 10650 10648 10647 10645 10641 10640 10639 10640 10643 10649 10655 10663 10671 10680 10690 10702 10712 10720 10731 10741 10745 10751 10755 10758 10761 10765 10768 10770 10772
10651 10647 10644 10640 10636 10633 10630 10627 10625 10624 10623 10624 10626 10630 10634 10640 10648 10658 10670 10680 10693 10703 10715 10722 10729 10736 10743 10747 10749 10751 10756 10757 10761
10641 10636 10632 10626 10621 10615 10613 10610 10607 10607 10605 10605 10607 10611 10615 10621 10627 10636 10646 10659 10671 10684 10694 10701 10714 10722 10724 10727 10731 10734 10739 10741 10746
10629 10624 10620 10614 10608 10603 10597 10593 10589 10589 10586 10584 10587 10591 10595 10599 10604 10611 10622 10634 10650 10663 10674 10684 10696 10705 10709 10715 10711 10715 10721 10723 10729
10616 10611 10606 10602 10596 10590 10583 10577 10574 10571 10569 10569 10567 10571 10574 10579 10581 10587 10599 10611 10625 10640 10651 10663 10673 10685 10690 10693 10692 10697 10702 10706 10711
10603 10597 10591 10586 10581 10575 10568 10562 10557 10554 10552 10552 10553 10553 10555 10559 10564 10567 10575 10587 10599 10615 10630 10640 10651 10662 10668 10675 10675 10681 10686 10689 10694
10589 10583 10577 10572 10567 10561 10555 10549 10544 10541 10538 10537 10537 10537 10538 10541 10546 10551 10555 10564 10577 10589 10605 10617 10628 10640 10648 10656 10659 10664 10669 10672 10679
10574 10568 10562 10556 10551 10546 10540 10535 10530 10527 10524 10522 10521 10521 10522 10524 10528 10533 10538 10544 10553 10566 10579 10594 10604 10618 10628 10633 10642 10645 10651 10656 10661
10558 10552 10545 10538 10533 10529 10526 10521 10517 10513 10510 10508 10508 10508 10507 10509 10511 10514 10518 10525 10533 10544 10554 10568 10582 10593 10603 10611 10620 10625 10631 10637 10645
10541 10535 10528 10522 10515 10511 10508 10505 10502 10500 10497 10494 10492 10492 10492 10493 10494 10497 10501 10505 10512 10521 10533 10545 10557 10569 10579 10589 10599 10606 10611 10614 10620
10524 10517 10510 10504 10498 10493 10489 10487 10485 10484 10483 10480 10477 10476 10476 10477 10477 10479 10482 10487 10493 10498 10509 10520 10533 10544 10554 10566 10577 10583 10592 10588 10596
10506 10499 10493 10486 10481 10476 10472 10468 10466 10465 10465 10463 10461 10459 10459 10460 10460 10461 10463 10468 10473 10478 10483 10493 10506 10518 10530 10540 10551 10559 10567 10569 10577
10487 10481 10475 10469 10463 10459 10455 10451 10447 10445 10443 10442 10441 10441 10440 10440 10441 10441 10444 10448 10450 10457 10463 10468 10477 10490 10502 10513 10524 10533 10542 10550 10556